EW1458 Weather Reports


Display with metric or nautical units.
time (UTC)temp
F
wind
direction
speed
MPH
gust
MPH
rain 1hr
in
rain 24hr
in
rain mn
in
humidity
%
barometer
mb
20260906022510 56 45 5.0 11.0 0.02 0.10 0.10 95 1007.2
20260906022409 56 24 6.0 11.0 0.01 0.10 0.10 94 1007.0
20260906020830 56 29 2.0 11.0 0.02 0.10 0.10 95 1007.2
20260906020331 56 280 3.0 12.0 0.02 0.10 0.10 95 1007.2
20260906015830 56 4 4.0 12.0 0.02 0.10 0.10 95 1007.2
20260906015328 56 0 1.0 6.0 0.02 0.10 0.10 95 1007.3
20260906014823 56 10 2.0 6.0 0.02 0.10 0.10 94 1007.1
20260906014319 56 23 6.0 7.0 0.01 0.09 0.10 94 1007.4
20260906013817 56 315 3.0 7.0 0.01 0.09 0.09 93 1007.4
20260906013316 57 336 1.0 7.0 0.01 0.09 0.09 93 1007.3
20260906012817 57 64 0.0 9.0 0.01 0.09 0.09 92 1007.5
20260906012707 57 39 3.0 9.0 0.01 0.09 0.09 92 1007.5
20260906012252 57 355 2.0 14.0 0.00 0.08 0.08 90 1007.7
20260906011309 58 72 2.0 14.0 0.00 0.08 0.08 88 1007.6
20260906010808 58 278 2.0 12.0 0.00 0.08 0.08 87 1007.4
20260906010308 58 313 2.0 12.0 0.00 0.08 0.08 87 1007.5
20260906005808 58 335 4.0 14.0 0.00 0.08 0.08 87 1007.4
20260906005307 58 6 5.0 14.0 0.00 0.08 0.08 87 1007.4
20260906004806 58 335 2.0 14.0 0.00 0.08 0.08 88 1007.4
20260906004707 58 312 6.0 17.0 0.00 0.08 0.08 88 1007.4
20260906003804 58 11 2.0 17.0 0.00 0.08 0.08 88 1007.6
20260906003303 58 50 3.0 12.0 0.00 0.08 0.08 89 1007.4
20260906002803 58 15 3.0 15.0 0.00 0.08 0.08 88 1007.5
20260906002305 58 292 3.0 15.0 0.00 0.08 0.08 88 1007.7
20260906001805 58 295 5.0 12.0 0.00 0.08 0.08 88 1007.5
20260906001315 58 12 4.0 14.0 0.00 0.08 0.08 88 1007.3
20260906000804 58 55 4.0 14.0 0.00 0.08 0.08 88 1007.4
20260906000303 58 345 1.0 13.0 0.00 0.08 0.08 88 1007.3
20260905235801 58 8 4.0 13.0 0.00 0.08 0.08 87 1007.3
20260905235259 58 318 3.0 16.0 0.00 0.08 0.08 87 1007.3
20260905235145 58 40 5.0 16.0 0.00 0.08 0.08 86 1007.2
20260905234252 58 19 7.0 16.0 0.00 0.08 0.08 87 1007.0
20260905233752 58 53 11.0 15.0 0.00 0.08 0.08 87 1007.1
20260905233253 58 61 3.0 15.0 0.00 0.08 0.08 88 1007.1
20260905232752 58 288 5.0 13.0 0.00 0.08 0.08 89 1007.0
20260905232253 58 318 2.0 13.0 0.00 0.08 0.08 89 1006.9
20260905231754 57 31 6.0 13.0 0.00 0.08 0.08 89 1006.8
20260905231637 57 53 3.0 14.0 0.00 0.08 0.08 89 1006.7
20260905230749 57 303 2.0 16.0 0.00 0.08 0.08 89 1006.7
20260905230245 57 55 14.0 16.0 0.00 0.08 0.08 90 1006.8
20260905230125 57 33 4.0 15.0 0.00 0.08 0.08 90 1006.8
20260905225243 57 36 8.0 15.0 0.00 0.08 0.08 90 1006.7
20260905225152 57 330 4.0 17.0 0.00 0.08 0.08 92 1006.6
20260905224233 57 355 2.0 17.0 0.00 0.08 0.08 93 1006.7
20260905223733 57 310 3.0 18.0 0.00 0.08 0.08 92 1006.6
20260905223221 57 23 6.0 18.0 0.00 0.08 0.08 93 1006.6
20260905222720 57 49 3.0 17.0 0.00 0.08 0.08 93 1006.5
20260905222617 57 299 3.0 17.0 0.00 0.08 0.08 93 1006.6
20260905221717 57 291 3.0 16.0 0.00 0.08 0.08 93 1006.6
20260905221204 57 7 5.0 17.0 0.00 0.08 0.08 93 1006.6
20260905220703 57 26 6.0 19.0 0.01 0.08 0.08 93 1006.4
20260905220158 57 41 5.0 19.0 0.01 0.08 0.08 92 1006.3
20260905215657 57 300 0.0 18.0 0.01 0.08 0.08 92 1006.2
20260905215154 58 33 3.0 14.0 0.01 0.08 0.08 92 1006.3
20260905214653 58 305 5.0 14.0 0.01 0.08 0.08 92 1006.2
20260905214151 58 288 6.0 12.0 0.01 0.08 0.08 92 1006.2
20260905213649 58 35 5.0 12.0 0.01 0.08 0.08 93 1006.2
20260905213148 58 326 3.0 15.0 0.01 0.08 0.08 93 1005.9
20260905212633 58 293 6.0 13.0 0.01 0.08 0.08 93 1006.1
20260905212524 58 35 7.0 13.0 0.01 0.08 0.08 93 1005.9
20260905211620 58 300 3.0 11.0 0.01 0.08 0.08 93 1005.9
20260905211116 58 265 2.0 15.0 0.01 0.08 0.08 93 1005.9
20260905210614 58 38 4.0 15.0 0.00 0.06 0.06 93 1005.7
20260905210531 58 285 4.0 14.0 0.00 0.06 0.06 93 1005.8
20260905205609 58 272 1.0 15.0 0.00 0.06 0.06 92 1005.6
20260905205448 58 39 2.0 15.0 0.00 0.06 0.06 92 1005.6
20260905204608 59 301 4.0 13.0 0.00 0.06 0.06 92 1005.8
20260905204459 59 22 5.0 13.0 0.00 0.06 0.06 92 1005.6
20260905203603 59 279 2.0 13.0 0.00 0.06 0.06 92 1005.5
20260905203104 59 70 2.0 13.0 0.00 0.06 0.06 92 1005.6
20260905202600 59 299 4.0 16.0 0.00 0.06 0.06 91 1005.5
20260905202056 59 46 5.0 18.0 0.00 0.06 0.06 90 1005.5
20260905201555 60 48 13.0 18.0 0.00 0.06 0.06 88 1005.4
20260905201054 59 336 3.0 14.0 0.00 0.06 0.06 90 1005.5
20260905200553 60 48 5.0 17.0 0.00 0.06 0.06 90 1005.4
20260905200104 60 13 1.0 17.0 0.00 0.06 0.06 90 1005.6
20260905195542 60 134 3.0 15.0 0.00 0.06 0.06 89 1005.5
20260905195040 60 41 10.0 15.0 0.00 0.06 0.06 90 1005.3
20260905194542 60 51 5.0 11.0 0.00 0.06 0.06 90 1005.3
20260905194028 59 24 3.0 12.0 0.00 0.06 0.06 91 1005.1
20260905193521 59 36 7.0 19.0 0.00 0.06 0.06 92 1005.3
20260905193031 59 48 11.0 19.0 0.00 0.06 0.06 92 1005.2
20260905192548 59 30 4.0 16.0 0.00 0.06 0.06 92 1005.4
20260905191358 60 51 4.0 20.0 0.00 0.06 0.06 89 1005.1
20260905190516 61 17 6.0 16.0 0.00 0.06 0.06 85 1005.1
20260905190014 62 338 2.0 12.0 0.00 0.06 0.06 81 1005.1
20260905185855 62 51 2.0 13.0 0.00 0.06 0.06 80 1004.7
20260905185003 62 39 7.0 13.0 0.00 0.06 0.06 79 1004.8
20260905184647 62 13 7.0 19.0 0.00 0.06 0.06 78 1004.8
20260905183458 62 328 6.0 23.0 0.00 0.06 0.06 78 1004.9
20260905182955 63 3 11.0 19.0 0.00 0.06 0.06 76 1004.6
20260905182444 62 36 6.0 19.0 0.00 0.06 0.06 77 1004.7
20260905182358 62 31 10.0 19.0 0.00 0.06 0.06 77 1004.9
20260905181439 62 37 8.0 18.0 0.00 0.06 0.06 77 1004.8
20260905180933 62 27 9.0 15.0 0.00 0.06 0.06 77 1004.6
20260905180429 62 63 4.0 14.0 0.00 0.06 0.06 77 1004.5
20260905175917 62 56 3.0 17.0 0.00 0.06 0.06 78 1004.6
20260905175413 62 41 7.0 21.0 0.00 0.06 0.06 77 1004.5
20260905174913 63 32 8.0 21.0 0.00 0.06 0.06 76 1004.8
20260905174413 63 31 5.0 18.0 0.00 0.06 0.06 76 1004.4
20260905173905 63 303 4.0 18.0 0.00 0.06 0.06 77 1004.6
20260905173745 63 41 5.0 17.0 0.00 0.06 0.06 78 1004.5
20260905172901 62 70 2.0 15.0 0.00 0.06 0.06 80 1004.7
20260905172401 62 30 7.0 15.0 0.00 0.06 0.06 80 1004.5
20260905171859 62 53 3.0 15.0 0.00 0.06 0.06 81 1004.5
20260905171357 63 33 11.0 12.0 0.00 0.06 0.06 80 1004.4
20260905170859 63 31 7.0 14.0 0.00 0.06 0.06 80 1004.6
20260905170357 63 345 4.0 16.0 0.00 0.06 0.06 79 1004.3
20260905165855 63 27 3.0 16.0 0.00 0.06 0.06 79 1004.3
20260905165355 63 93 2.0 14.0 0.00 0.06 0.06 81 1004.1
20260905164852 63 348 6.0 17.0 0.00 0.06 0.06 82 1004.2
20260905164346 63 351 4.0 17.0 0.00 0.06 0.06 82 1004.1
20260905163845 63 268 3.0 15.0 0.00 0.06 0.06 83 1004.1
20260905163337 63 30 5.0 15.0 0.00 0.06 0.06 84 1004.2
20260905162833 63 334 6.0 14.0 0.00 0.06 0.06 81 1004.1
20260905162335 63 66 6.0 15.0 0.00 0.06 0.06 83 1004.0
20260905161834 63 322 4.0 15.0 0.00 0.06 0.06 83 1004.1
20260905161333 63 56 7.0 18.0 0.00 0.06 0.06 83 1004.0
20260905160830 62 333 6.0 18.0 0.00 0.06 0.06 83 1003.8
20260905160331 63 284 8.0 17.0 0.00 0.06 0.06 84 1003.9
20260905155816 62 342 3.0 17.0 0.00 0.06 0.06 84 1003.7
20260905155752 63 25 2.0 15.0 0.00 0.06 0.06 85 1003.8
20260905154814 62 330 2.0 15.0 0.00 0.06 0.06 84 1003.8
20260905154315 62 37 7.0 15.0 0.00 0.06 0.06 84 1003.7
20260905153815 62 37 6.0 13.0 0.00 0.06 0.06 84 1003.7
20260905153313 62 18 5.0 15.0 0.00 0.06 0.06 85 1003.8
20260905152813 62 29 5.0 16.0 0.00 0.06 0.06 85 1003.7
20260905152312 62 353 4.0 16.0 0.00 0.06 0.06 84 1003.8
20260905151810 62 30 6.0 16.0 0.00 0.06 0.06 83 1003.7
20260905151309 62 304 5.0 16.0 0.00 0.06 0.06 82 1003.8
20260905151201 62 69 6.0 13.0 0.00 0.06 0.06 83 1003.6
20260905150305 62 16 2.0 12.0 0.00 0.06 0.06 84 1003.7
20260905145804 62 280 4.0 16.0 0.00 0.06 0.06 85 1003.5
20260905145306 62 21 5.0 16.0 0.00 0.06 0.06 84 1003.6
20260905144800 62 248 4.0 15.0 0.00 0.06 0.06 83 1003.4
20260905144257 62 15 4.0 15.0 0.00 0.06 0.06 83 1003.4
20260905143757 61 139 0.0 15.0 0.00 0.06 0.06 84 1003.6
20260905143252 61 48 5.0 15.0 0.00 0.06 0.06 85 1003.6
20260905143158 61 316 4.0 12.0 0.00 0.06 0.06 86 1003.3
20260905142717 60 16 3.0 13.0 0.00 0.06 0.06 86 1003.7
20260905141747 60 294 2.0 13.0 0.00 0.06 0.06 87 1003.7
20260905141247 60 290 2.0 10.0 0.00 0.06 0.06 87 1003.6
20260905140747 60 352 1.0 10.0 0.00 0.06 0.06 86 1003.8
20260905140245 60 7 5.0 10.0 0.00 0.06 0.06 86 1003.7
20260905135744 60 22 3.0 12.0 0.00 0.06 0.06 86 1003.5
20260905135244 60 2 6.0 12.0 0.00 0.06 0.06 87 1003.5
20260905134743 60 301 2.0 11.0 0.00 0.06 0.06 87 1003.6
20260905134242 60 311 4.0 14.0 0.00 0.06 0.06 87 1003.4
20260905133741 60 25 2.0 14.0 0.00 0.06 0.06 87 1003.5
20260905133254 60 69 6.0 11.0 0.00 0.06 0.06 86 1003.5
20260905132735 60 56 4.0 10.0 0.00 0.06 0.06 86 1003.6
20260905132234 60 358 2.0 10.0 0.00 0.06 0.06 86 1003.4
20260905131734 60 335 6.0 10.0 0.00 0.06 0.06 86 1003.2
20260905131247 60 321 5.0 21.0 0.00 0.06 0.06 87 1003.3
20260905131126 60 337 4.0 21.0 0.00 0.06 0.06 88 1003.2
20260905130234 60 48 11.0 14.0 0.00 0.06 0.06 88 1003.4
20260905125733 60 296 2.0 14.0 0.00 0.06 0.06 89 1003.2
20260905125651 60 341 3.0 14.0 0.00 0.06 0.06 89 1003.0
20260905124728 60 22 9.0 14.0 0.00 0.06 0.06 90 1003.1
20260905124219 60 355 2.0 12.0 0.00 0.06 0.06 91 1003.0
20260905123716 60 321 5.0 11.0 0.00 0.06 0.06 91 1003.1
20260905123215 60 332 2.0 10.0 0.00 0.06 0.06 91 1003.2
20260905123133 59 309 3.0 10.0 0.00 0.06 0.06 91 1002.9
20260905122212 59 61 3.0 14.0 0.00 0.06 0.06 92 1002.9
20260905121712 59 55 2.0 14.0 0.00 0.06 0.06 91 1003.1
20260905121208 59 9 4.0 11.0 0.00 0.06 0.06 91 1002.9
20260905120706 59 28 3.0 16.0 0.00 0.06 0.06 91 1002.9
20260905120219 59 35 6.0 16.0 0.00 0.06 0.06 92 1002.9
20260905115705 59 13 2.0 13.0 0.00 0.06 0.06 92 1002.9
20260905115209 59 310 2.0 8.0 0.00 0.06 0.06 93 1003.0
20260905114706 59 71 4.0 11.0 0.00 0.06 0.06 92 1002.9
20260905114206 59 85 2.0 12.0 0.00 0.06 0.06 93 1002.9
20260905114107 59 338 4.0 12.0 0.00 0.06 0.06 93 1002.8
20260905113200 59 310 4.0 15.0 0.00 0.06 0.06 93 1002.7
20260905112659 59 90 4.0 15.0 0.00 0.07 0.06 94 1002.9
20260905112200 59 118 2.0 13.0 0.00 0.07 0.06 95 1002.9
20260905112052 59 303 4.0 9.0 0.01 0.07 0.06 95 1002.9
20260905111146 59 306 3.0 9.0 0.01 0.07 0.06 96 1002.8
20260905110647 59 27 2.0 15.0 0.02 0.07 0.06 96 1002.9
20260905110145 59 355 5.0 15.0 0.02 0.07 0.06 96 1003.0
20260905105641 58 60 5.0 10.0 0.02 0.07 0.06 96 1002.9
20260905105139 58 209 2.0 11.0 0.02 0.07 0.06 96 1003.0
20260905104637 58 328 3.0 11.0 0.02 0.07 0.06 96 1003.0
20260905104135 58 10 3.0 6.0 0.02 0.07 0.06 96 1002.9
20260905103636 58 296 2.0 9.0 0.02 0.07 0.06 96 1003.0
20260905103134 58 28 2.0 11.0 0.02 0.07 0.06 96 1002.7
20260905102637 58 334 3.0 11.0 0.02 0.07 0.06 96 1002.8
20260905102527 58 289 6.0 7.0 0.01 0.06 0.05 96 1002.9
20260905102045 58 320 4.0 7.0 0.03 0.06 0.05 96 1002.8
20260905101537 58 327 5.0 7.0 0.03 0.06 0.05 96 1002.7
20260905100633 59 333 3.0 6.0 0.01 0.05 0.04 95 1002.7
20260905100520 59 25 1.0 8.0 0.01 0.05 0.04 95 1002.6
20260905100002 59 297 2.0 9.0 0.01 0.05 0.04 95 1002.8
20260905095127 59 20 2.0 9.0 0.01 0.05 0.04 95 1002.7
20260905094624 59 320 2.0 6.0 0.02 0.05 0.04 95 1002.5
20260905094257 59 329 3.0 6.0 0.02 0.05 0.04 96 1002.6
20260905093124 59 0 2.0 10.0 0.02 0.05 0.04 96 1002.5
20260905092621 59 281 5.0 10.0 0.02 0.05 0.04 96 1002.5
20260905092312 59 287 5.0 9.0 0.02 0.05 0.04 96 1002.4
20260905091117 59 293 2.0 14.0 0.01 0.03 0.02 95 1002.5
20260905090958 59 319 3.0 14.0 0.01 0.03 0.02 95 1002.5
20260905090120 59 296 4.0 11.0 0.01 0.03 0.02 95 1002.3
20260905085614 59 299 6.0 11.0 0.01 0.03 0.02 95 1002.6
20260905085110 59 306 4.0 11.0 0.01 0.03 0.02 94 1002.7
20260905085012 59 318 6.0 9.0 0.00 0.02 0.02 94 1002.4
20260905084104 59 316 5.0 11.0 0.00 0.02 0.01 95 1002.3
20260905083603 59 311 5.0 11.0 0.00 0.02 0.01 95 1002.3
20260905083449 59 302 7.0 11.0 0.00 0.04 0.01 95 1002.3
20260905082557 59 320 5.0 11.0 0.00 0.04 0.01 95 1002.3
20260905082057 59 323 5.0 9.0 0.00 0.04 0.01 95 1002.3
20260905081953 59 307 4.0 9.0 0.00 0.04 0.01 94 1002.4
20260905081235 59 307 4.0 11.0 0.00 0.04 0.01 94 1002.2
20260905081129 59 292 6.0 11.0 0.00 0.04 0.01 94 1002.3
20260905075547 60 303 4.0 6.0 0.00 0.04 0.01 95 1002.2
20260905075050 60 305 4.0 6.0 0.01 0.04 0.01 95 1002.1
20260905074549 60 307 4.0 6.0 0.01 0.04 0.01 94 1002.2
20260905074048 60 345 2.0 6.0 0.01 0.04 0.01 94 1002.3
20260905073544 60 319 6.0 6.0 0.01 0.04 0.01 94 1002.2
20260905073043 60 324 3.0 9.0 0.01 0.05 0.01 94 1002.3
20260905072541 60 315 2.0 9.0 0.01 0.05 0.01 95 1002.2
20260905072041 60 278 2.0 7.0 0.01 0.05 0.01 95 1002.3
20260905071541 60 324 2.0 5.0 0.01 0.05 0.01 95 1002.1
20260905071040 60 297 2.0 5.0 0.01 0.05 0.01 95 1002.3
20260905070537 60 300 4.0 6.0 0.01 0.05 0.01 95 1002.3
20260905070034 60 319 1.0 6.0 0.01 0.05 0.01 95 1002.1
20260905065532 60 315 3.0 10.0 0.01 0.05 0.01 94 1002.2
20260905065031 60 306 3.0 10.0 0.00 0.03 0.00 94 1002.2
20260905064530 60 326 2.0 6.0 0.00 0.03 0.00 94 1002.2
20260905064029 60 305 4.0 9.0 0.00 0.03 0.00 94 1002.1
20260905063527 60 338 1.0 12.0 0.00 0.03 0.00 94 1002.2
20260905063023 61 313 5.0 12.0 0.00 0.05 0.00 93 1002.0
20260905062520 61 92 2.0 8.0 0.00 0.05 0.00 93 1002.2
20260905062020 61 323 2.0 8.0 0.00 0.05 0.00 93 1002.2
20260905061520 61 315 3.0 7.0 0.00 0.05 0.00 93 1002.3
20260905061413 61 284 1.0 7.0 0.00 0.05 0.00 94 1002.3
20260905060519 61 306 4.0 7.0 0.00 0.06 0.00 94 1002.3
20260905060018 61 318 3.0 7.0 0.00 0.06 0.00 93 1002.1
20260905055520 61 349 2.0 6.0 0.00 0.06 0.00 94 1002.1
20260905055510 61 321 1.0 8.0 0.00 0.06 0.00 94 1002.1
20260905054516 61 161 1.0 8.0 0.00 0.06 0.00 94 1002.2
20260905054017 61 314 4.0 9.0 0.00 0.07 0.00 94 1002.2
20260905053516 61 6 2.0 12.0 0.00 0.09 0.00 94 1002.1
20260905053014 61 41 5.0 12.0 0.00 0.09 0.00 95 1002.2
20260905052519 61 331 2.0 6.0 0.00 0.09 0.00 95 1002.4
20260905052013 60 26 2.0 6.0 0.00 0.10 0.00 95 1002.2
20260905051511 61 313 2.0 7.0 0.00 0.10 0.00 95 1002.5
20260905051010 61 325 5.0 7.0 0.00 0.10 0.00 95 1002.3
20260905050458 61 303 0.0 6.0 0.00 0.10 0.00 95 1002.3
20260905050136 61 307 5.0 6.0 0.00 0.10 0.00 94 1002.5
20260905044950 61 319 4.0 10.0 0.00 0.10 0.00 94 1002.7
20260905044449 61 308 4.0 11.0 0.00 0.10 0.00 93 1002.7
20260905043944 62 296 7.0 11.0 0.00 0.10 0.00 93 1002.5
20260905043623 62 299 2.0 11.0 0.00 0.10 0.00 92 1002.6
20260905042443 62 313 6.0 10.0 0.00 0.10 0.00 91 1002.6
20260905041940 62 322 4.0 6.0 0.00 0.10 0.00 92 1002.6
20260905041439 62 33 1.0 7.0 0.00 0.10 0.00 92 1002.4
20260905040940 61 321 3.0 7.0 0.00 0.10 0.00 92 1002.5
20260905040437 61 332 3.0 5.0 0.00 0.12 0.00 93 1002.6
20260905035934 61 293 3.0 5.0 0.00 0.12 0.00 94 1002.6
20260905035434 61 54 3.0 5.0 0.00 0.12 0.00 94 1002.7
20260905035339 61 316 2.0 3.0 0.00 0.13 0.00 95 1002.6
20260905034432 61 119 2.0 3.0 0.00 0.13 0.00 94 1002.6
20260905033928 61 299 2.0 3.0 0.00 0.14 0.00 95 1002.6
20260905033426 61 291 2.0 3.0 0.00 0.16 0.00 95 1002.7
20260905032913 61 322 0.0 2.0 0.00 0.20 0.00 95 1002.5
20260905032413 61 265 1.0 2.0 0.00 0.27 0.00 95 1002.8
20260905031912 61 31 1.0 3.0 0.00 0.31 0.00 95 1002.9
20260905031413 61 325 1.0 3.0 0.00 0.34 0.00 95 1002.9
20260905030910 60 24 0.0 3.0 0.00 0.34 0.00 95 1002.9
20260905030410 61 284 0.0 3.0 0.00 0.34 0.00 95 1002.9
20260905025910 61 19 0.0 3.0 0.00 0.34 0.34 94 1002.7
20260905025408 61 307 2.0 3.0 0.00 0.34 0.34 94 1002.6
20260905024907 61 320 1.0 3.0 0.00 0.34 0.34 94 1002.6
20260905024407 61 317 2.0 3.0 0.00 0.34 0.34 93 1002.9
20260905023859 62 295 1.0 2.0 0.00 0.34 0.34 93 1002.6
20260905023530 62 306 1.0 3.0 0.00 0.34 0.34 93 1002.9